Content
SEND FEEDBACK

Daily
Averages
Monthly
Summary
United States of America

TAMUNING, GUAM


Home > North America > United States > Guam
Elevation: 76 meters     Latitude: 13 29N     Longitude: 144 47E

WEATHER
 
SELECT A DAY
Number of Records: 350,330;   Date Range: 1/1/95 - 10/1/14
 
SHARE

PRINT THIS DATA

[ ← Previous Day ]
WEATHER ALMANAC - 16 FEBRUARY, 2013
[ Next Day → ]
[ °F ]   °C
Weather ElementAverageHighLow
Temperature25 °C27.3 °C (1:55 pm)24 °C (7:07 am)
Dewpoint23 °C24.2 °C (11:55 am)21 °C (12:23 am)
Humidity88.7 %100 % (8:50 am)77 % (1:55 pm)
Barometer1008.1 hPa1009.5 hPa (9:07 am)1006.1 hPa (3:33 am)
Wind Speed26.7 km/h38.9 km/h (11:13 am)
Wind Gust53.8 km/h (11:12 am)
Weather ElementAverage
Visibility13.2 km
Wind DirectionENE (63.3 °)

Weather ElementTotal
Precipitation4.32 mm
Cooling Degree Days7.3 (Base 18.3)
Growing Degree Days15.7 (Base 10)
Averaged from 155 records on 16 February, 2013
WEATHER CONDITIONS BREAKOUT
WIND DIRECTION BREAKOUT
WEATHER BY HOUR - 16 FEBRUARY, 2013
[ °F ]   °C
Local TimeTemperatureDewpointHumidityBarometerVisibilityWind DirectionWind SpeedGust SpeedPrecipitationEventsConditions
12:23 AM25 °C21 °C78 %1008.1 hPa16.1 kmENE (60°)25.9 km/h40.7 km/hScattered Clouds
12:39 AM25 °C21 °C78 %1007.8 hPa16.1 kmENE (60°)31.5 km/hMostly Cloudy
12:45 AM25 °C21 °C78 %1007.8 hPa16.1 kmENE (70°)27.8 km/hMostly Cloudy
12:55 AM25.3 °C21.5 °C79 %1007.8 hPa16.1 kmENE (60°)27.8 km/h37 km/hMostly Cloudy
1:55 AM25.1 °C21.7 °C81 %1007.1 hPa16.1 kmENE (60°)27.8 km/hScattered Clouds
2:04 AM25 °C22 °C83 %1007.1 hPa16.1 kmENE (60°)29.6 km/h38.9 km/hMostly Cloudy
2:08 AM25 °C22 °C83 %1006.8 hPa16.1 kmENE (60°)29.6 km/hScattered Clouds
2:55 AM25.2 °C22 °C82 %1006.4 hPa16.1 kmENE (60°)25.9 km/hScattered Clouds
3:06 AM25 °C22 °C83 %1006.4 hPa16.1 kmENE (60°)31.5 km/h38.9 km/hMostly Cloudy
3:33 AM25 °C22 °C83 %1006.1 hPa16.1 kmENE (70°)22.2 km/h35.2 km/hScattered Clouds
3:34 AM25 °C22 °C83 %1006.1 hPa16.1 kmENE (60°)22.2 km/h35.2 km/hMostly Cloudy
3:46 AM25 °C22 °C83 %1006.1 hPa16.1 kmENE (60°)29.6 km/h35.2 km/hMostly Cloudy
3:50 AM25 °C22 °C83 %1006.1 hPa16.1 kmENE (60°)25.9 km/hMostly Cloudy
3:55 AM25.4 °C22.5 °C84 %1006.1 hPa16.1 kmENE (60°)29.6 km/hMostly Cloudy
4:04 AM25 °C22 °C83 %1006.1 hPa16.1 kmENE (60°)29.6 km/h42.6 km/hMostly Cloudy
4:30 AM25 °C22 °C83 %1006.1 hPa16.1 kmENE (70°)25.9 km/hLight Drizzle
4:40 AM25 °C23 °C89 %1006.1 hPa16.1 kmENE (60°)25.9 km/hScattered Clouds
4:42 AM25 °C23 °C89 %1006.1 hPa16.1 kmENE (60°)29.6 km/hMostly Cloudy
4:52 AM25 °C22 °C83 %1006.4 hPa16.1 kmENE (60°)29.6 km/h38.9 km/hScattered Clouds
4:55 AM24.9 °C22 °C84 %1006.4 hPa16.1 kmENE (60°)29.6 km/h38.9 km/h0 mmScattered Clouds
5:09 AM25 °C22 °C83 %1006.4 hPa16.1 kmENE (60°)33.3 km/hMostly Cloudy
5:50 AM25 °C22 °C83 %1006.8 hPa16.1 kmENE (60°)25.9 km/hOvercast
5:55 AM25.4 °C22 °C81 %1006.8 hPa16.1 kmENE (60°)24.1 km/hOvercast
5:57 AM25 °C22 °C83 %1006.8 hPa16.1 kmENE (60°)25.9 km/hOvercast
6:02 AM25 °C22 °C83 %1006.8 hPa16.1 kmENE (60°)24.1 km/hOvercast
6:12 AM25 °C22 °C83 %1007.1 hPa16.1 kmENE (60°)24.1 km/hRainLight Rain
6:13 AM25 °C22 °C83 %1007.1 hPa16.1 kmENE (60°)25.9 km/hRainLight Rain
6:23 AM25 °C22 °C83 %1007.1 hPa16.1 kmENE (60°)25.9 km/hMostly Cloudy
6:46 AM25 °C22 °C83 %1007.5 hPa12.9 kmNE (50°)37 km/h42.6 km/hRainLight Rain
6:55 AM24.4 °C22.8 °C91 %1007.8 hPa6.4 kmENE (70°)22.2 km/h42.6 km/h0 mmRainLight Rain
7:07 AM24 °C22 °C89 %1007.8 hPa8 kmENE (70°)25.9 km/hLight Drizzle
7:10 AM24 °C22 °C89 %1008.1 hPa11.3 kmENE (70°)24.1 km/hLight Drizzle
7:11 AM24 °C22 °C89 %1008.1 hPa12.9 kmENE (70°)25.9 km/hOvercast
7:18 AM24 °C23 °C94 %1008.1 hPa16.1 kmENE (70°)25.9 km/hOvercast
7:31 AM24 °C23 °C94 %1008.5 hPa14.5 kmENE (70°)29.6 km/hOvercast
7:32 AM24 °C23 °C94 %1008.5 hPa12.9 kmENE (70°)27.8 km/hOvercast
7:33 AM24 °C23 °C94 %1008.5 hPa11.3 kmENE (70°)25.9 km/hLight Drizzle
7:35 AM24 °C23 °C94 %1008.5 hPa8 kmENE (70°)25.9 km/hLight Drizzle
7:39 AM24 °C23 °C94 %1008.5 hPa6.4 kmENE (70°)24.1 km/hRainLight Rain
7:40 AM24 °C23 °C94 %1008.5 hPa6.4 kmENE (70°)24.1 km/hRainLight Rain
7:49 AM24 °C23 °C94 %1008.5 hPa14.5 kmENE (60°)24.1 km/hOvercast
7:52 AM24 °C23 °C94 %1008.5 hPa16.1 kmENE (60°)22.2 km/hOvercast
7:55 AM24 °C22.8 °C93 %1008.5 hPa16.1 kmENE (60°)22.2 km/h0.25 mmMostly Cloudy
8:01 AM24 °C23 °C94 %1008.8 hPa16.1 kmENE (70°)24.1 km/hMostly Cloudy
8:05 AM24 °C23 °C94 %1008.8 hPa16.1 kmENE (60°)25.9 km/hMostly Cloudy
8:06 AM24 °C23 °C94 %1008.8 hPa16.1 kmENE (60°)25.9 km/hMostly Cloudy
8:08 AM24 °C23 °C94 %1008.8 hPa12.9 kmENE (60°)22.2 km/hLight Drizzle
8:13 AM24 °C23 °C94 %1008.8 hPa4 kmENE (70°)24.1 km/hRainLight Rain
8:14 AM24 °C23 °C94 %1009.1 hPa4 kmENE (70°)27.8 km/hRainLight Rain
8:15 AM24 °C23 °C94 %1009.1 hPa3.2 kmENE (70°)25.9 km/hRainLight Rain
8:18 AM24 °C23 °C94 %1009.1 hPa3.2 kmENE (60°)22.2 km/hRainLight Rain
8:19 AM24 °C23 °C94 %1009.1 hPa3.2 kmENE (60°)20.4 km/hRainLight Rain
8:21 AM24 °C23 °C94 %1009.1 hPa4 kmENE (60°)18.5 km/hRainLight Rain
8:22 AM24 °C23 °C94 %1009.1 hPa4.8 kmENE (60°)20.4 km/hRainLight Rain
8:27 AM24 °C23 °C94 %1009.1 hPa8 kmNE (50°)20.4 km/hRainLight Rain
8:28 AM24 °C23 °C94 %1009.1 hPa8 kmNE (50°)18.5 km/hRainLight Rain
8:31 AM24 °C23 °C94 %1009.1 hPa9.7 kmNE (50°)18.5 km/hRainLight Rain
8:33 AM24 °C23 °C94 %1009.1 hPa11.3 kmNE (50°)20.4 km/hRainLight Rain
8:36 AM24 °C23 °C94 %1009.1 hPa16.1 kmENE (60°)20.4 km/hOvercast
8:40 AM24 °C23 °C94 %1009.1 hPa16.1 kmENE (60°)20.4 km/hOvercast
8:50 AM24 °C24 °C100 %1009.1 hPa16.1 kmENE (70°)24.1 km/hMostly Cloudy
8:55 AM24.5 °C23.7 °C95 %1009.1 hPa16.1 kmENE (70°)35.2 km/h42.6 km/h0.25 mmOvercast
8:56 AM24 °C24 °C100 %1009.1 hPa14.5 kmENE (70°)37 km/h44.4 km/hOvercast
8:57 AM24 °C23 °C94 %1009.1 hPa11.3 kmENE (70°)33.3 km/h44.4 km/hLight Drizzle
9:00 AM24 °C23 °C94 %1009.1 hPa6.4 kmENE (70°)29.6 km/h44.4 km/hRainLight Rain
9:03 AM24 °C23 °C94 %1009.1 hPa6.4 kmENE (70°)25.9 km/h44.4 km/hRainLight Rain
9:07 AM24 °C24 °C100 %1009.5 hPa8 kmENE (60°)22.2 km/hRainLight Rain
9:10 AM25 °C24 °C94 %1009.5 hPa14.5 kmENE (70°)22.2 km/hOvercast
9:19 AM25 °C24 °C94 %1009.5 hPa16.1 kmENE (60°)18.5 km/hOvercast
9:31 AM25 °C24 °C94 %1009.5 hPa16.1 kmENE (60°)20.4 km/hOvercast
9:36 AM25 °C24 °C94 %1009.5 hPa16.1 kmENE (60°)22.2 km/hOvercast
9:41 AM25 °C23 °C89 %1009.5 hPa16.1 kmENE (60°)22.2 km/hOvercast
9:48 AM25 °C23 °C89 %1009.5 hPa16.1 kmENE (60°)24.1 km/hOvercast
9:55 AM25 °C23.8 °C93 %1009.5 hPa16.1 kmNE (50°)24.1 km/h0.25 mmOvercast
9:59 AM25 °C24 °C94 %1009.5 hPa16.1 kmNE (50°)24.1 km/hOvercast
10:13 AM25 °C24 °C94 %1009.5 hPa16.1 kmNE (50°)18.5 km/hOvercast
10:15 AM25 °C24 °C94 %1009.5 hPa16.1 kmNE (50°)20.4 km/hOvercast
10:44 AM27 °C24 °C84 %1009.1 hPa16.1 kmNE (50°)22.2 km/hMostly Cloudy
10:55 AM26.5 °C24 °C86 %1009.1 hPa16.1 kmNE (50°)18.5 km/hMostly Cloudy
11:11 AM27 °C24 °C84 %1008.8 hPa16.1 kmENE (60°)24.1 km/hMostly Cloudy
11:12 AM26 °C24 °C89 %1008.8 hPa14.5 kmENE (70°)29.6 km/h53.8 km/hMostly Cloudy
11:13 AM26 °C24 °C89 %1009.1 hPa11.3 kmEast (80°)38.9 km/h53.8 km/hRainLight Rain
11:16 AM26 °C23 °C83 %1009.1 hPa4 kmENE (60°)37 km/h53.8 km/hRainLight Rain
11:17 AM25 °C23 °C89 %1009.1 hPa3.2 kmENE (60°)33.3 km/h53.8 km/hRainLight Rain
11:18 AM25 °C23 °C89 %1009.1 hPa2.4 kmENE (70°)33.3 km/h53.8 km/hRainRain
11:20 AM25 °C23 °C89 %1009.1 hPa1.9 kmENE (60°)31.5 km/h53.8 km/hRainHeavy Rain
11:22 AM24 °C23 °C94 %1009.1 hPa1.6 kmENE (70°)27.8 km/h53.8 km/hRainHeavy Rain
11:26 AM24 °C23 °C94 %1008.8 hPa1.9 kmENE (60°)27.8 km/h38.9 km/hRainRain
11:27 AM24 °C23 °C94 %1008.8 hPa2.4 kmENE (60°)25.9 km/h38.9 km/hRainLight Rain
11:29 AM24 °C23 °C94 %1008.8 hPa3.2 kmENE (70°)24.1 km/h38.9 km/hRainLight Rain
11:31 AM24 °C23 °C94 %1008.8 hPa4 kmENE (70°)25.9 km/h38.9 km/hRainLight Rain
11:32 AM25 °C23 °C89 %1008.8 hPa4.8 kmENE (70°)24.1 km/h38.9 km/hRainLight Rain
11:35 AM25 °C24 °C94 %1008.8 hPa11.3 kmENE (70°)29.6 km/hRainLight Rain
11:37 AM25 °C24 °C94 %1008.8 hPa16.1 kmENE (70°)25.9 km/hMostly Cloudy
11:39 AM26 °C24 °C89 %1008.8 hPa16.1 kmENE (70°)24.1 km/hMostly Cloudy
11:52 AM27 °C24 °C84 %1008.5 hPa16.1 kmENE (70°)24.1 km/hMostly Cloudy
11:55 AM26.7 °C24.2 °C86 %1008.5 hPa16.1 kmEast (80°)25.9 km/h3.05 mmMostly Cloudy
12:26 PM27 °C24 °C84 %1008.1 hPa11.3 kmENE (60°)24.1 km/h37 km/hRainLight Rain
12:27 PM27 °C24 °C84 %1007.8 hPa11.3 kmNE (50°)24.1 km/h37 km/hRainLight Rain
12:31 PM26 °C24 °C89 %1007.8 hPa6.4 kmNE (40°)25.9 km/h37 km/hRainRain
12:40 PM26 °C24 °C89 %1007.8 hPa14.5 kmNE (50°)25.9 km/h40.7 km/hMostly Cloudy
12:55 PM26.9 °C24.2 °C85 %1007.5 hPa16.1 kmNE (50°)35.2 km/h42.6 km/h0.25 mmOvercast
1:34 PM27 °C24 °C84 %1007.1 hPa16.1 kmENE (60°)33.3 km/hMostly Cloudy
1:55 PM27.3 °C23 °C77 %1007.1 hPa16.1 kmENE (60°)33.3 km/h46.3 km/hMostly Cloudy
2:08 PM27 °C24 °C84 %1007.1 hPa16.1 kmEast (80°)31.5 km/hMostly Cloudy
2:13 PM26 °C24 °C89 %1007.1 hPa12.9 kmEast (90°)37 km/h42.6 km/hMostly Cloudy
2:14 PM26 °C24 °C89 %1007.1 hPa11.3 kmEast (90°)35.2 km/h42.6 km/hLight Drizzle
2:22 PM25 °C24 °C94 %1007.1 hPa4 kmEast (90°)31.5 km/h44.4 km/hLight Drizzle
2:26 PM25 °C23 °C89 %1007.1 hPa4.8 kmEast (80°)24.1 km/h44.4 km/hRainLight Rain
2:28 PM25 °C23 °C89 %1007.1 hPa4.8 kmEast (80°)22.2 km/hRainLight Rain
2:34 PM25 °C24 °C94 %1007.1 hPa11.3 kmEast (80°)18.5 km/hOvercast
2:37 PM25 °C24 °C94 %1006.8 hPa16.1 kmENE (70°)20.4 km/hMostly Cloudy
2:39 PM26 °C24 °C89 %1006.8 hPa16.1 kmEast (80°)20.4 km/hMostly Cloudy
2:55 PM27 °C24 °C84 %1006.8 hPa16.1 kmENE (60°)24.1 km/h0.25 mmScattered Clouds
3:40 PM27 °C23 °C79 %1006.8 hPa11.3 kmENE (60°)24.1 km/h42.6 km/hRainRain
3:52 PM26 °C23 °C83 %1007.1 hPa16.1 kmEast (80°)35.2 km/h44.4 km/hOvercast
3:55 PM25.7 °C23.9 °C90 %1007.1 hPa16.1 kmEast (80°)35.2 km/h44.4 km/h0 mmOvercast
3:56 PM26 °C24 °C89 %1007.1 hPa16.1 kmEast (80°)33.3 km/h44.4 km/hOvercast
3:59 PM25 °C24 °C94 %1007.1 hPa12.9 kmEast (80°)33.3 km/h44.4 km/hRainLight Rain
4:05 PM25 °C24 °C94 %1007.1 hPa11.3 kmEast (80°)27.8 km/h44.4 km/hLight Drizzle
4:09 PM25 °C24 °C94 %1007.1 hPa14.5 kmEast (90°)24.1 km/h42.6 km/hOvercast
4:11 PM25 °C24 °C94 %1007.1 hPa16.1 kmEast (90°)29.6 km/h38.9 km/hOvercast
4:14 PM25 °C24 °C94 %1007.5 hPa16.1 kmEast (80°)27.8 km/h38.9 km/hOvercast
4:19 PM25 °C24 °C94 %1007.5 hPa16.1 kmEast (80°)27.8 km/h40.7 km/hRainLight Rain
4:26 PM25 °C23 °C89 %1007.5 hPa16.1 kmEast (80°)33.3 km/hRainLight Rain
4:33 PM25 °C23 °C89 %1007.5 hPa16.1 kmEast (80°)27.8 km/hOvercast
4:34 PM25 °C23 °C89 %1007.5 hPa16.1 kmEast (80°)27.8 km/hOvercast
4:49 PM26 °C23 °C83 %1007.5 hPa16.1 kmENE (70°)25.9 km/hMostly Cloudy
4:55 PM26 °C22.9 °C83 %1007.5 hPa16.1 kmENE (60°)22.2 km/h0 mmMostly Cloudy
5:55 PM25 °C21.5 °C81 %1007.8 hPa16.1 kmNE (50°)27.8 km/hMostly Cloudy
6:55 PM24.8 °C22.4 °C86 %1008.1 hPa16.1 kmENE (60°)22.2 km/hPartly Cloudy
7:25 PM25 °C23 °C89 %1008.5 hPa16.1 kmNE (50°)27.8 km/h40.7 km/hRainLight Rain
7:34 PM25 °C23 °C89 %1008.5 hPa16.1 kmENE (60°)24.1 km/h40.7 km/hMostly Cloudy
7:40 PM25 °C23 °C89 %1008.5 hPa16.1 kmNE (50°)25.9 km/h38.9 km/hMostly Cloudy
7:45 PM25 °C23 °C89 %1008.5 hPa16.1 kmNE (50°)31.5 km/h40.7 km/hRainLight Rain
7:49 PM25 °C23 °C89 %1008.5 hPa16.1 kmNE (50°)27.8 km/h40.7 km/hRainLight Rain
7:55 PM25 °C23.4 °C91 %1008.5 hPa16.1 kmNE (50°)25.9 km/h0 mmScattered Clouds
8:03 PM25 °C23 °C89 %1008.5 hPa16.1 kmNE (50°)29.6 km/hMostly Cloudy
8:54 PM25 °C22 °C83 %1009.1 hPa16.1 kmENE (60°)27.8 km/hScattered Clouds
8:55 PM25.2 °C22.4 °C84 %1009.1 hPa16.1 kmENE (60°)25.9 km/hScattered Clouds
8:57 PM25 °C23 °C89 %1009.1 hPa16.1 kmNE (50°)27.8 km/hMostly Cloudy
9:01 PM25 °C23 °C89 %1009.1 hPa16.1 kmENE (60°)25.9 km/h38.9 km/hScattered Clouds
9:16 PM25 °C23 °C89 %1009.1 hPa16.1 kmNE (50°)27.8 km/hMostly Cloudy
9:38 PM25 °C22 °C83 %1009.1 hPa16.1 kmNE (50°)22.2 km/hScattered Clouds
9:43 PM25 °C23 °C89 %1009.1 hPa16.1 kmNE (50°)27.8 km/hMostly Cloudy
9:55 PM25.5 °C22.6 °C84 %1009.1 hPa16.1 kmNE (50°)29.6 km/hMostly Cloudy
10:17 PM25 °C22 °C83 %1009.1 hPa16.1 kmENE (60°)27.8 km/hScattered Clouds
10:44 PM25 °C23 °C89 %1009.1 hPa16.1 kmNE (50°)27.8 km/hMostly Cloudy
10:49 PM25 °C23 °C89 %1009.1 hPa16.1 kmNE (50°)22.2 km/hMostly Cloudy
10:55 PM25.4 °C22.8 °C85 %1009.1 hPa16.1 kmENE (60°)29.6 km/hMostly Cloudy
11:06 PM25 °C22 °C83 %1009.1 hPa16.1 kmNE (50°)31.5 km/hMostly Cloudy
11:29 PM25 °C22 °C83 %1009.1 hPa16.1 kmNE (50°)31.5 km/hMostly Cloudy
11:30 PM25 °C22 °C83 %1009.1 hPa16.1 kmNE (50°)31.5 km/hMostly Cloudy
11:31 PM25 °C22 °C83 %1009.1 hPa16.1 kmNE (50°)29.6 km/hScattered Clouds
11:55 PM25.3 °C22.7 °C85 %1009.1 hPa16.1 kmNE (50°)29.6 km/hPartly Cloudy
Hourly data recorded from PGUA, located 0 kilometers away from Tamuning, Guam







STORIES FROM OUR PARTNERS